Regional Weather Roundup
Issued by NWS

Home | Current Version | Previous Version | Graphics & Text | Print | Product List | Glossary On
Versions: 1 2 3 4 5 6 7 8 9 10 11 12 13 14 15 16 17 18 19 20 21 22 23 24 25 26 27 28
000
ASUS45 KBOI 161310
RWRID

IDAHO REGIONAL WEATHER ROUNDUP
NATIONAL WEATHER SERVICE BOISE ID
600 AM MST SAT DEC 16 2017

NOTE: "FAIR" INDICATES FEW OR NO CLOUDS BELOW 12000 FEET
WITH NO SIGNIFICANT WEATHER AND/OR OBSTRUCTIONS TO VISIBILITY

IDZ012-014-161400-
SOUTHWEST IDAHO


CITY           SKY/WX    TMP DP  RH WIND       PRES   REMARKS
BOISE          CLOUDY    24  22  91 NW3       30.09S FOG
CALDWELL       CLOUDY    21  19  93 NW3       30.14S FOG
MOUNTAIN HOME  PTCLDY    22  22 100 W12       30.05S WCI  10
$$

IDZ016-017-161400-
SOUTHCENTRAL IDAHO


CITY           SKY/WX    TMP DP  RH WIND       PRES   REMARKS
BURLEY         MIX PCPN  28  24  85 W12G18    29.95S WCI  18
JEROME         FOG       25  23  92 SW18      29.97S VSB 1   WCI  11
TWIN FALLS     CLOUDY    27  27 100 W20       29.98R WCI  13
$$

IDZ019>023-161400-
SOUTHEAST IDAHO


CITY           SKY/WX    TMP DP  RH WIND       PRES   REMARKS
IDAHO FALLS    LGT SNOW  25  24  96 SW6       29.93R VSB 1   WCI  18
POCATELLO      LGT SNOW  25  23  92 SW13      29.94F FOG     WCI  14
REXBURG        LGT SNOW  24  23  96 SW7       29.92R VSB 1   WCI  16
$$

IDZ006-010-011-018-031-032-161400-
CENTRAL IDAHO MOUNTAINS


CITY           SKY/WX    TMP DP  RH WIND       PRES   REMARKS
MCCALL         CLOUDY    23  20  88 NW3       29.98R
HAILEY         FOG       23  23 100 SE6       29.89F VSB 3/4 WCI  16
STANLEY          N/A     24  21  88 NW3       29.90R
SALMON         CLOUDY    22  20  92 CALM      29.99S
CHALLIS        CLOUDY    21  18  88 CALM      29.92R
$$

IDZ002-004-006-007-026-161400-
NORTHERN IDAHO


CITY           SKY/WX    TMP DP  RH WIND       PRES   REMARKS
LEWISTON       LGT SNOW  29  29 100 S5        30.20S FOG     WCI  24
LOWELL           N/A     32  32 100 CALM      30.17R
COEUR D`ALENE  CLOUDY    25  23  92 W6        30.14S WCI  18
MULLAN PASS    LGT SNOW  19  14  81 NW3       29.92S
$$




USA.gov is the U.S. government's official web portal to all federal, state and local government web resources and services.